Prague, Czech Republic

6:23 AM CET on February 20, 2017 (GMT +0100)
Ruzyne

Weather History for LKPR - July, 2012

Change the Weather History Date:

Friday, July 6, 2012

  Actual Average Record
Temperature  
Mean Temperature 73 °F -  
Max Temperature 85 °F 74 °F 86 °F (2006)
Min Temperature 61 °F 53 °F 46 °F (2005)
Cooling Degree Days 8    
Growing Degree Days 23 (Base 50)    
Moisture  
Dew Point 63 °F    
Average Humidity 76    
Maximum Humidity 100    
Minimum Humidity 38    
Precipitation  
Precipitation 0.03 in 0.09 in - ()
Sea Level Pressure  
Sea Level Pressure 29.88 in    
Wind  
Wind Speed 5 mph ()    
Max Wind Speed 14 mph    
Max Gust Speed -    
Visibility 5.8 miles    
Events Rain , Thunderstorm    
Averages and records for this station are not official NWS values.
T = Trace of Precipitation, MM = Missing Value Source: Averaged Metar Reports

Daily Weather History Graph

Daily Weather History Graph

Search for Another Location

Airport or City:

Trip Planner

Search our weather history database for the weather conditions in past years. The results will help you decide how hot, cold, wet, or windy it might be!

Date:

Astronomy

Jul. 06, 2012 Rise Set
Actual Time 5:01 AM CEST 9:13 PM CEST
Civil Twilight 4:17 AM CEST 9:57 PM CEST
Nautical Twilight 3:14 AM CEST 10:59 PM CEST
Astronomical Twilight 1:40 AM CEST 12:35 AM CEST
Moon 10:27 PM CEST (7/6) 8:23 AM CEST (7/6)
Length of Visible Light 17h 39m
Length of Day
16h 12m
Waning Gibbous, 91% of the Moon is Illuminated
Jul 6
Waning Gibbous
Jul 11
Last Quarter
Jul 19
New
Jul 26
First Quarter
Aug 2
Full

Hourly Weather History & Observations

Time (CEST) Temp. Heat Index Dew Point Humidity Pressure Visibility Wind Dir Wind Speed Gust Speed Precip Events Conditions
12:00 AM 66.2 °F - 64.4 °F 94% 29.86 in 5.6 mi East 6.9 mph - N/A   Scattered Clouds
12:04 AM 66.2 °F - 64.4 °F 94% 29.86 in 5.0 mi ESE 5.8 mph - N/A   Mostly Cloudy
12:20 AM 64.4 °F - 64.4 °F 100% 29.86 in 4.3 mi SE 6.9 mph - N/A   Scattered Clouds
12:30 AM 64.4 °F - 64.4 °F 100% 29.86 in 4.3 mi SE 5.8 mph - N/A   Partly Cloudy
1:00 AM 64.4 °F - 62.6 °F 94% 29.86 in 4.3 mi SE 4.6 mph - N/A   Unknown
1:30 AM 62.6 °F - 62.6 °F 100% 29.86 in 4.3 mi SE 5.8 mph - N/A   Unknown
2:00 AM 63 °F - 62 °F 96% 29.85 in 4 mi SSE 2.2 mph - -   Mist
2:00 AM 62.6 °F - 62.6 °F 100% 29.86 in 4.3 mi SE 4.6 mph - N/A   Unknown
2:30 AM 62.6 °F - 62.6 °F 100% 29.86 in 3.1 mi South 4.6 mph - N/A   Partly Cloudy
3:00 AM 62.6 °F - 60.8 °F 94% 29.89 in 2.5 mi SSW 8.1 mph - N/A   Scattered Clouds
3:16 AM 62.6 °F - 62.6 °F 100% 29.89 in 5.0 mi WSW 5.8 mph - N/A   Partly Cloudy
3:30 AM 62.6 °F - 62.6 °F 100% 29.89 in 6.2 mi SW 6.9 mph - N/A   Partly Cloudy
4:00 AM 62.6 °F - 60.8 °F 94% 29.86 in - West 3.5 mph - N/A   Clear
4:30 AM 62.6 °F - 60.8 °F 94% 29.86 in - Variable 2.3 mph - N/A   Clear
5:00 AM 62.6 °F - 60.8 °F 94% 29.86 in 6.2 mi ESE 6.9 mph - N/A   Partly Cloudy
5:30 AM 62.6 °F - 60.8 °F 94% 29.86 in 6.2 mi South 5.8 mph - N/A   Partly Cloudy
6:00 AM 62.6 °F - 60.8 °F 94% 29.86 in 6.2 mi South 6.9 mph - N/A   Partly Cloudy
6:30 AM 62.6 °F - 62.6 °F 100% 29.86 in - South 5.8 mph - N/A   Clear
7:00 AM 64.4 °F - 62.6 °F 94% 29.86 in - South 5.8 mph - N/A   Clear
7:30 AM 66.2 °F - 62.6 °F 88% 29.86 in - SSW 6.9 mph - N/A   Clear
8:00 AM 67 °F - 61 °F 77% 29.85 in 12 mi SSW 4.5 mph - -   Scattered Clouds
8:00 AM 66.2 °F - 62.6 °F 88% 29.89 in - SSW 4.6 mph - N/A   Clear
8:30 AM 68.0 °F - 62.6 °F 83% 29.86 in - SW 5.8 mph - N/A   Clear
9:00 AM 69.8 °F - 62.6 °F 78% 29.89 in - SW 4.6 mph - N/A   Clear
9:30 AM 71.6 °F - 60.8 °F 69% 29.89 in 6.2 mi SSW 3.5 mph - N/A   Partly Cloudy
10:00 AM 73.4 °F - 60.8 °F 65% 29.89 in 6.2 mi Variable 2.3 mph - N/A   Partly Cloudy
10:30 AM 75.2 °F - 62.6 °F 65% 29.89 in 6.2 mi Variable 2.3 mph - N/A   Partly Cloudy
11:00 AM 77.0 °F - 62.6 °F 61% 29.89 in 6.2 mi Variable 2.3 mph - N/A   Partly Cloudy
11:30 AM 77.0 °F - 60.8 °F 57% 29.89 in 6.2 mi Variable 2.3 mph - N/A   Partly Cloudy
12:00 PM 78.8 °F - 62.6 °F 57% 29.89 in 6.2 mi Variable 3.5 mph - N/A   Partly Cloudy
12:30 PM 80.6 °F 82.3 °F 64.4 °F 58% 29.89 in 6.2 mi Variable 3.5 mph - N/A   Partly Cloudy
1:00 PM 80.6 °F 81.8 °F 62.6 °F 54% 29.89 in 6.2 mi North 5.8 mph - N/A   Partly Cloudy
1:30 PM 82.4 °F 83.4 °F 62.6 °F 51% 29.89 in 6.2 mi Variable 3.5 mph - N/A   Partly Cloudy
2:00 PM 83 °F - 62 °F 38% 29.83 in 25 mi NNW 4.5 mph - -   Scattered Clouds
2:00 PM 82.4 °F 83.4 °F 62.6 °F 51% 29.89 in 6.2 mi Variable 2.3 mph - N/A   Partly Cloudy
2:30 PM 84.2 °F 85.0 °F 62.6 °F 48% 29.89 in 6.2 mi Variable 3.5 mph - N/A   Partly Cloudy
3:00 PM 84.2 °F 84.4 °F 60.8 °F 45% 29.89 in - ESE 4.6 mph - N/A   Clear
3:30 PM 82.4 °F 82.9 °F 60.8 °F 48% 29.89 in - NNE 5.8 mph - N/A   Clear
4:00 PM 82.4 °F 83.4 °F 62.6 °F 51% 29.89 in - Variable 4.6 mph - N/A   Clear
4:30 PM 82.4 °F 83.4 °F 62.6 °F 51% 29.86 in - ENE 4.6 mph - N/A   Clear
5:00 PM 82.4 °F 83.4 °F 62.6 °F 51% 29.86 in - East 6.9 mph - N/A   Clear
5:30 PM 82.4 °F 83.9 °F 64.4 °F 54% 29.89 in 6.2 mi NE 8.1 mph - N/A Thunderstorm Partly Cloudy
6:00 PM 80.6 °F 82.3 °F 64.4 °F 58% 29.89 in 6.2 mi NNE 4.6 mph - N/A Thunderstorm Partly Cloudy
6:09 PM 78.8 °F - 62.6 °F 57% 29.89 in 6.2 mi WSW 12.7 mph - N/A Thunderstorm Partly Cloudy
6:30 PM 77.0 °F - 64.4 °F 65% 29.89 in 6.2 mi SSW 9.2 mph - N/A Thunderstorm Partly Cloudy
7:00 PM 75.2 °F - 62.6 °F 65% 29.89 in - West 8.1 mph - N/A   Clear
7:30 PM 73.4 °F - 60.8 °F 65% 29.89 in - WSW 6.9 mph - N/A   Clear
8:00 PM 73 °F - 63 °F 64% 29.84 in 22 mi West 4.5 mph - -   Partly Cloudy
8:00 PM 73.4 °F - 64.4 °F 73% 29.89 in - West 3.5 mph - N/A   Clear
8:13 PM 73.4 °F - 62.6 °F 69% 29.89 in 6.2 mi Variable 2.3 mph - N/A Rain Light Rain Showers
8:31 PM 73.4 °F - 64.4 °F 73% 29.89 in 6.2 mi West 4.6 mph - N/A Rain , Thunderstorm Light Thunderstorms and Rain
9:00 PM 71.6 °F - 66.2 °F 83% 29.89 in 6.2 mi NW 6.9 mph - N/A Rain , Thunderstorm Light Thunderstorms and Rain
9:30 PM 68.0 °F - 64.4 °F 88% 29.92 in 6.2 mi NNW 10.4 mph - N/A Rain , Thunderstorm Light Thunderstorms and Rain
9:39 PM 68.0 °F - 64.4 °F 88% 29.92 in 6.2 mi NNW 13.8 mph - N/A Rain Light Rain Showers
10:01 PM 68.0 °F - 62.6 °F 83% 29.92 in 6.2 mi North 11.5 mph - N/A   Partly Cloudy
10:30 PM 66.2 °F - 62.6 °F 88% 29.92 in 6.2 mi NW 11.5 mph - N/A Thunderstorm Partly Cloudy
11:00 PM 66.2 °F - 62.6 °F 88% 29.92 in 6.2 mi WNW 9.2 mph - N/A Thunderstorm Partly Cloudy
11:30 PM 66.2 °F - 62.6 °F 88% 29.92 in - NW 11.5 mph - N/A   Clear